This is the latest recevied weather packets stored in our database for station/object KQ4UWH. If no packets are shown the sender has not sent any weather packets the latest 10 day(s).
| Time | Temp. | Humidity | Pressure | Rain* | Wind** | Luminosity | Snow |
|---|---|---|---|---|---|---|---|
| 1777242393 | 27.22° C | 40% | 1239.7 hPa | 0 mm | - | 130 W/m² | - |
| 1777242091 | 27.78° C | 39% | 1239.7 hPa | 0 mm | - | 192 W/m² | - |
| 1777241788 | 27.78° C | 40% | 1239.7 hPa | 0 mm | - | 208 W/m² | - |
| 1777241485 | 27.22° C | 39% | 1239.7 hPa | 0 mm | - | 225 W/m² | - |
| 1777241183 | 27.22° C | 39% | 1239.7 hPa | 0 mm | - | 232 W/m² | - |
| 1777240880 | 27.22° C | 42% | 1239.7 hPa | 0 mm | - | 210 W/m² | - |
| 1777240578 | 27.22° C | 41% | 1239.7 hPa | 0 mm | - | 236 W/m² | - |
| 1777240275 | 27.78° C | 44% | 1239.7 hPa | 0 mm | - | 259 W/m² | - |
| 1777239972 | 27.78° C | 45% | 1239.7 hPa | 0 mm | - | 297 W/m² | - |
| 1777239670 | 27.22° C | 46% | 1239.7 hPa | 0 mm | - | 310 W/m² | - |
| 1777239366 | 27.22° C | 46% | 1239.7 hPa | 0 mm | - | 315 W/m² | - |
| 1777239063 | 27.22° C | 44% | 1239.7 hPa | 0 mm | - | 343 W/m² | - |
| 1777238761 | 27.22° C | 45% | 1239.7 hPa | 0 mm | - | 357 W/m² | - |
| 1777238457 | 27.78° C | 44% | 1239.7 hPa | 0 mm | - | 377 W/m² | - |
| 1777238154 | 28.33° C | 44% | 1239.7 hPa | 0 mm | - | 399 W/m² | - |
| 1777237851 | 27.78° C | 45% | 1239.7 hPa | 0 mm | - | 407 W/m² | - |
| 1777237547 | 27.78° C | 43% | 1239.7 hPa | 0 mm | - | 441 W/m² | - |
| 1777237245 | 27.78° C | 44% | 1239.7 hPa | 0 mm | - | 418 W/m² | - |
| 1777236942 | 27.22° C | 46% | 1239.7 hPa | 0 mm | - | 458 W/m² | - |
| 1777236639 | 26.67° C | 46% | 1239.7 hPa | 0 mm | - | 480 W/m² | - |
| 1777236334 | 27.22° C | 43% | 1239.7 hPa | 0 mm | - | 131 W/m² | - |
| 1777236030 | 27.78° C | 45% | 1239.7 hPa | 0 mm | - | 514 W/m² | - |
| 1777235726 | 27.78° C | 47% | 1239.7 hPa | 0 mm | - | 517 W/m² | - |
| 1777235424 | 27.78° C | 48% | 1239.7 hPa | 0 mm | - | 535 W/m² | - |
| 1777235120 | 27.78° C | 47% | 1239.7 hPa | 0 mm | - | 105 W/m² | - |
* Rain latest hour (hover to see other rain measurements)
** Current wind speed in m/s (hover to see current wind gust speed)